{"data":{"norad_id":54147,"intl_designator":"2022-138AL","name":"ONEWEB-0535","alt_names":[],"object_type":"PAYLOAD","status":"ACTIVE","operator":null,"country":"UK","launch_date":"2022-10-22","launch_site_code":"SRILR","launch_vehicle":null,"mission":null,"orbit_class":"UNKNOWN","rcs_meters":null,"size_class":null,"mass_kg":null,"dimensions":null,"purposes":["comms"],"wikipedia_slug":null,"has_3d_model":false,"image_url":null,"decayed_at":null,"tle_current":{"epoch":"2026-05-24T22:55:27.863040Z","epoch_age_seconds":72226,"freshness":"FRESH","line1":"1 54147U 22138AL  26144.95518360  .00000019  00000+0  15436-4 0  9993","line2":"2 54147  87.9159 309.5883 0002091 100.1648 259.9720 13.19726133173775","mean_motion":13.19726133,"eccentricity":0.0002091,"inclination_deg":87.9159,"raan_deg":309.5883,"arg_perigee_deg":100.1648,"mean_anomaly_deg":259.972,"bstar":1.5436e-5,"rev_number":17377,"period_min":109.11354742416,"perigee_km":1184.1846106991,"apogee_km":1187.3478350269,"semimajor_km":7563.903222863,"source":"CELESTRAK","updated_at":"2026-05-25T13:38:22.592095Z"}}}